• En España
  • Lista de países
  • Para 7 días
  • Temperatura del agua
  • Mapa Satelital
  • El tiempo en el mapa
  • Informadores
  • user-avatar
    Iniciar sesión

    Tiempo cada hora Drzonkow

    Hoy, 22 Julio, Domingo

    Tiempo Temperatura Precipitaciones Viento Presión Humedad
    00:00 +18°C° 0 mm 2 mps 750 mmHg 74%
    01:00 +18°C° 0 mm 1 mps 750 mmHg 77%
    02:00 +18°C° 0 mm 1 mps 750 mmHg 79%
    03:00 +18°C° 0 mm 1 mps 750 mmHg 82%
    04:00 +16°C° 0 mm 1 mps 750 mmHg 84%
    05:00 +18°C° 0 mm 1 mps 750 mmHg 80%
    06:00 +19°C° 0 mm 1 mps 750 mmHg 76%
    07:00 +21°C° 0 mm 1 mps 750 mmHg 72%
    08:00 +21°C° 0 mm 2 mps 750 mmHg 65%
    09:00 +23°C° 0 mm 2 mps 750 mmHg 58%
    10:00 +25°C° 0 mm 2 mps 750 mmHg 51%
    11:00 +26°C° 0 mm 2 mps 750 mmHg 47%
    12:00 +27°C° 0 mm 2 mps 750 mmHg 43%
    13:00 +28°C° 0 mm 3 mps 750 mmHg 39%
    14:00 +28°C° 0 mm 3 mps 750 mmHg 39%
    15:00 +28°C° 0 mm 3 mps 750 mmHg 39%
    16:00 +28°C° 0 mm 3 mps 750 mmHg 39%
    17:00 +27°C° 0 mm 2 mps 750 mmHg 44%
    18:00 +26°C° 0 mm 2 mps 750 mmHg 50%
    19:00 +25°C° 0 mm 1 mps 750 mmHg 56%
    20:00 +24°C° 0 mm 1 mps 750 mmHg 59%
    21:00 +22°C° 0 mm 1 mps 750 mmHg 63%
    22:00 +21°C° 0 mm 1 mps 751 mmHg 67%
    23:00 +20°C° 0 mm 1 mps 751 mmHg 69%

    Mañana, 23 Julio, Lunes

    Tiempo Temperatura Precipitaciones Viento Presión Humedad
    00:00 +20°C° 0 mm 1 mps 751 mmHg 70%
    01:00 +20°C° 0 mm 1 mps 751 mmHg 72%
    02:00 +19°C° 0 mm 1 mps 751 mmHg 73%
    03:00 +19°C° 0 mm 1 mps 751 mmHg 75%
    04:00 +18°C° 0 mm 1 mps 751 mmHg 77%
    05:00 +20°C° 0 mm 1 mps 751 mmHg 72%
    06:00 +22°C° 0 mm 1 mps 751 mmHg 68%
    07:00 +23°C° 0 mm 1 mps 752 mmHg 63%
    08:00 +25°C° 0,1 mm 1 mps 752 mmHg 58%
    09:00 +27°C° 0,1 mm 1 mps 752 mmHg 53%
    10:00 +28°C° 0,1 mm 1 mps 752 mmHg 48%
    11:00 +29°C° 0,2 mm 2 mps 752 mmHg 47%
    12:00 +29°C° 0,2 mm 2 mps 752 mmHg 46%
    13:00 +29°C° 0,2 mm 2 mps 751 mmHg 45%
    14:00 +29°C° 0 mm 2 mps 751 mmHg 45%
    15:00 +29°C° 0 mm 2 mps 751 mmHg 46%
    16:00 +29°C° 0 mm 2 mps 751 mmHg 47%
    17:00 +28°C° 0 mm 2 mps 751 mmHg 50%
    18:00 +27°C° 0 mm 2 mps 752 mmHg 54%
    19:00 +26°C° 0 mm 2 mps 752 mmHg 57%
    20:00 +25°C° 0 mm 2 mps 752 mmHg 63%
    21:00 +23°C° 0 mm 2 mps 752 mmHg 69%
    22:00 +21°C° 0 mm 2 mps 753 mmHg 74%
    23:00 +20°C° 0 mm 2 mps 753 mmHg 79%

    Pasado mañana, 24 Julio, Martes

    Tiempo Temperatura Precipitaciones Viento Presión Humedad
    00:00 +20°C° 0 mm 1 mps 753 mmHg 83%
    01:00 +20°C° 0 mm 1 mps 753 mmHg 87%
    02:00 +19°C° 0 mm 1 mps 753 mmHg 89%
    03:00 +19°C° 0 mm 1 mps 753 mmHg 90%
    04:00 +18°C° 0 mm 1 mps 753 mmHg 92%
    05:00 +20°C° 0 mm 1 mps 753 mmHg 85%
    06:00 +21°C° 0 mm 1 mps 753 mmHg 79%
    07:00 +22°C° 0 mm 1 mps 753 mmHg 72%
    08:00 +24°C° 0 mm 2 mps 753 mmHg 66%
    09:00 +26°C° 0 mm 2 mps 753 mmHg 59%
    10:00 +27°C° 0 mm 2 mps 753 mmHg 52%
    11:00 +28°C° 0 mm 2 mps 753 mmHg 50%
    12:00 +29°C° 0 mm 2 mps 752 mmHg 47%
    13:00 +29°C° 0 mm 2 mps 752 mmHg 45%
    14:00 +30°C° 0,2 mm 2 mps 752 mmHg 46%
    15:00 +30°C° 0,2 mm 3 mps 752 mmHg 47%
    16:00 +30°C° 0,2 mm 3 mps 752 mmHg 48%
    17:00 +28°C° 0,3 mm 3 mps 752 mmHg 56%
    18:00 +27°C° 0,3 mm 2 mps 752 mmHg 64%
    19:00 +26°C° 0,3 mm 2 mps 752 mmHg 72%
    20:00 +24°C° 0,2 mm 2 mps 752 mmHg 78%
    21:00 +23°C° 0,2 mm 2 mps 752 mmHg 83%
    22:00 +22°C° 0,2 mm 1 mps 752 mmHg 89%
    23:00 +21°C° 0 mm 1 mps 752 mmHg 91%

    25 Julio, Miércoles

    Tiempo Temperatura Precipitaciones Viento Presión Humedad
    00:00 +21°C° 0 mm 1 mps 752 mmHg 92%
    01:00 +20°C° 0 mm 1 mps 752 mmHg 94%
    02:00 +20°C° 0 mm 1 mps 752 mmHg 94%
    03:00 +20°C° 0 mm 1 mps 752 mmHg 95%
    04:00 +19°C° 0 mm 1 mps 752 mmHg 95%
    05:00 +20°C° 0 mm 1 mps 752 mmHg 90%
    06:00 +21°C° 0 mm 1 mps 753 mmHg 85%
    07:00 +23°C° 0 mm 1 mps 753 mmHg 80%
    08:00 +24°C° 0 mm 1 mps 753 mmHg 70%
    09:00 +26°C° 0 mm 2 mps 753 mmHg 61%
    10:00 +28°C° 0 mm 2 mps 753 mmHg 52%
    11:00 +29°C° 0,1 mm 2 mps 753 mmHg 49%
    12:00 +30°C° 0,1 mm 3 mps 752 mmHg 47%
    13:00 +30°C° 0,1 mm 3 mps 752 mmHg 44%
    14:00 +30°C° 0 mm 3 mps 752 mmHg 44%
    15:00 +30°C° 0 mm 3 mps 752 mmHg 44%
    16:00 +30°C° 0 mm 3 mps 752 mmHg 44%
    17:00 +29°C° 0 mm 3 mps 752 mmHg 49%
    18:00 +28°C° 0 mm 2 mps 752 mmHg 53%
    19:00 +27°C° 0 mm 2 mps 752 mmHg 58%
    20:00 +26°C° 0 mm 2 mps 752 mmHg 62%
    21:00 +25°C° 0 mm 2 mps 753 mmHg 67%
    22:00 +24°C° 0 mm 2 mps 753 mmHg 71%
    23:00 +23°C° 0 mm 1 mps 753 mmHg 74%

    26 Julio, Jueves

    Tiempo Temperatura Precipitaciones Viento Presión Humedad
    00:00 +22°C° 0 mm 1 mps 753 mmHg 78%
    01:00 +21°C° 0 mm 1 mps 753 mmHg 81%
    02:00 +21°C° 0 mm 1 mps 753 mmHg 83%
    03:00 +20°C° 0 mm 1 mps 753 mmHg 85%
    04:00 +20°C° 0 mm 1 mps 753 mmHg 87%
    05:00 +21°C° 0 mm 1 mps 754 mmHg 82%
    06:00 +22°C° 0 mm 1 mps 754 mmHg 76%
    07:00 +24°C° 0 mm 2 mps 754 mmHg 71%
    08:00 +25°C° 0 mm 2 mps 754 mmHg 64%
    09:00 +27°C° 0 mm 2 mps 754 mmHg 56%
    10:00 +29°C° 0 mm 2 mps 754 mmHg 49%
    11:00 +30°C° 0 mm 2 mps 754 mmHg 45%
    12:00 +31°C° 0 mm 3 mps 754 mmHg 41%
    13:00 +31°C° 0 mm 3 mps 754 mmHg 37%
    14:00 +33°C° 0 mm 3 mps 754 mmHg 37%
    15:00 +33°C° 0 mm 3 mps 753 mmHg 37%
    16:00 +33°C° 0 mm 3 mps 753 mmHg 37%
    17:00 +30°C° 0 mm 3 mps 753 mmHg 42%
    18:00 +29°C° 0 mm 2 mps 753 mmHg 48%
    19:00 +28°C° 0 mm 2 mps 753 mmHg 54%
    20:00 +26°C° 0 mm 2 mps 754 mmHg 58%
    21:00 +25°C° 0 mm 2 mps 754 mmHg 63%
    22:00 +24°C° 0 mm 2 mps 754 mmHg 68%
    23:00 +23°C° 0 mm 2 mps 754 mmHg 71%

    27 Julio, Viernes

    Tiempo Temperatura Precipitaciones Viento Presión Humedad
    00:00 +21°C° 0 mm 2 mps 754 mmHg 75%
    01:00 +21°C° 0 mm 2 mps 754 mmHg 79%
    02:00 +21°C° 0 mm 1 mps 754 mmHg 81%
    03:00 +20°C° 0 mm 1 mps 754 mmHg 82%
    04:00 +20°C° 0 mm 1 mps 754 mmHg 84%
    05:00 +21°C° 0 mm 1 mps 754 mmHg 79%
    06:00 +22°C° 0 mm 1 mps 754 mmHg 74%
    07:00 +23°C° 0 mm 1 mps 754 mmHg 68%
    08:00 +25°C° 0 mm 2 mps 754 mmHg 61%
    09:00 +27°C° 0 mm 2 mps 754 mmHg 53%
    10:00 +28°C° 0 mm 2 mps 754 mmHg 45%
    11:00 +29°C° 0 mm 2 mps 754 mmHg 42%
    12:00 +30°C° 0 mm 2 mps 753 mmHg 39%
    13:00 +31°C° 0 mm 2 mps 753 mmHg 35%
    14:00 +32°C° 0 mm 2 mps 753 mmHg 36%
    15:00 +32°C° 0 mm 2 mps 753 mmHg 36%
    16:00 +32°C° 0 mm 2 mps 752 mmHg 37%
    17:00 +31°C° 0 mm 2 mps 752 mmHg 43%
    18:00 +30°C° 0 mm 2 mps 752 mmHg 50%
    19:00 +28°C° 0 mm 2 mps 752 mmHg 57%
    20:00 +27°C° 0,1 mm 1 mps 752 mmHg 63%
    21:00 +25°C° 0,1 mm 1 mps 752 mmHg 70%
    22:00 +24°C° 0,1 mm 1 mps 753 mmHg 76%
    23:00 +24°C° 0 mm 1 mps 753 mmHg 79%
    Mostrar más